CCM26D LIMC-LFKF

Flight info

Callsign CCM26D
Flight time 0h 54m
Altitude 35000
Route ROBAS DCT LUKIM DCT TORTU
Aircraft A320/M-SDE3FGHIRWY/LB1

Departure

Time 2026-05-05 18:22
Airport Milan Malpensa International Airport (LIMC)

Arrival

Time 2026-05-05 19:17
Airport Figari Sud-Corse Airport (LFKF)
Time Latitude Longitude Altitude Speed Heading
2026-05-05 17:50 45.62530 8.71526 751 ft 0 kts 169°
2026-05-05 18:08 45.62532 8.71526 753 ft 3 kts 169°
2026-05-05 18:08 45.62558 8.71518 750 ft 4 kts 169°
2026-05-05 18:09 45.62579 8.71513 751 ft 4 kts 169°
2026-05-05 18:09 45.62603 8.71508 748 ft 4 kts 207°
2026-05-05 18:09 45.62610 8.71526 749 ft 4 kts 256°
2026-05-05 18:09 45.62616 8.71563 748 ft 4 kts 261°
2026-05-05 18:10 45.62619 8.71595 748 ft 2 kts 261°
2026-05-05 18:10 45.62623 8.71631 749 ft 4 kts 261°
2026-05-05 18:10 45.62627 8.71669 751 ft 4 kts 261°
2026-05-05 18:10 45.62632 8.71707 753 ft 4 kts 260°
2026-05-05 18:11 45.62637 8.71745 753 ft 4 kts 259°
2026-05-05 18:11 45.62642 8.71781 749 ft 3 kts 256°
2026-05-05 18:11 45.62651 8.71814 750 ft 4 kts 220°
2026-05-05 18:11 45.62674 8.71826 749 ft 4 kts 174°
2026-05-05 18:12 45.62700 8.71818 750 ft 4 kts 165°
2026-05-05 18:12 45.62710 8.71814 749 ft 0 kts 169°
2026-05-05 18:15 45.62708 8.71815 749 ft 2 kts 169°
2026-05-05 18:15 45.62686 8.71820 750 ft 4 kts 169°
2026-05-05 18:15 45.62657 8.71873 751 ft 10 kts 92°
2026-05-05 18:16 45.62672 8.71991 751 ft 12 kts 79°
2026-05-05 18:16 45.62679 8.72102 750 ft 11 kts 104°
2026-05-05 18:16 45.62622 8.72149 752 ft 9 kts 168°
2026-05-05 18:16 45.62560 8.72166 748 ft 11 kts 169°
2026-05-05 18:17 45.62470 8.72191 748 ft 14 kts 169°
2026-05-05 18:17 45.62383 8.72215 752 ft 12 kts 169°
2026-05-05 18:17 45.62302 8.72237 750 ft 13 kts 169°
2026-05-05 18:17 45.62225 8.72288 750 ft 12 kts 115°
2026-05-05 18:18 45.62235 8.72417 748 ft 18 kts 78°
2026-05-05 18:18 45.62260 8.72603 748 ft 19 kts 79°
2026-05-05 18:18 45.62284 8.72778 750 ft 17 kts 79°
2026-05-05 18:18 45.62306 8.72945 752 ft 17 kts 81°
2026-05-05 18:19 45.62242 8.73035 753 ft 14 kts 168°
2026-05-05 18:19 45.62141 8.73063 753 ft 17 kts 169°
2026-05-05 18:19 45.62008 8.73100 753 ft 23 kts 169°
2026-05-05 18:19 45.61845 8.73145 751 ft 25 kts 169°
2026-05-05 18:20 45.61727 8.73236 750 ft 16 kts 127°
2026-05-05 18:20 45.61668 8.73359 751 ft 14 kts 124°
2026-05-05 18:20 45.61616 8.73469 752 ft 13 kts 124°
2026-05-05 18:20 45.61584 8.73580 751 ft 12 kts 93°
2026-05-05 18:21 45.61615 8.73706 742 ft 17 kts 40°
2026-05-05 18:21 45.61784 8.73694 745 ft 35 kts 348°
2026-05-05 18:21 45.62241 8.73565 744 ft 99 kts 349°
2026-05-05 18:21 45.63113 8.73325 744 ft 154 kts 349°
2026-05-05 18:22 45.64207 8.73014 1254 ft 158 kts 348°
2026-05-05 18:22 45.65288 8.72725 1980 ft 158 kts 351°
2026-05-05 18:22 45.66374 8.72561 2545 ft 165 kts
2026-05-05 18:22 45.67584 8.72561 2921 ft 183 kts
2026-05-05 18:23 45.68919 8.72574 3315 ft 200 kts
2026-05-05 18:23 45.70382 8.72576 3677 ft 220 kts
2026-05-05 18:23 45.71979 8.72464 4029 ft 240 kts 344°
2026-05-05 18:23 45.73347 8.71148 4751 ft 242 kts 302°
2026-05-05 18:24 45.73808 8.68910 5549 ft 241 kts 265°
2026-05-05 18:24 45.73453 8.66591 6448 ft 237 kts 249°
2026-05-05 18:24 45.72851 8.64370 7241 ft 241 kts 246°
2026-05-05 18:24 45.72221 8.62130 8046 ft 244 kts 248°
2026-05-05 18:25 45.71509 8.59915 8885 ft 245 kts 236°
2026-05-05 18:25 45.70838 8.58599 9359 ft 252 kts 231°
2026-05-05 18:25 45.69418 8.55716 9930 ft 278 kts 236°
2026-05-05 18:25 45.68230 8.53512 10647 ft 281 kts 225°
2026-05-05 18:26 45.66699 8.51681 11184 ft 296 kts 213°
2026-05-05 18:26 45.64804 8.50345 11416 ft 319 kts 204°
2026-05-05 18:26 45.62670 8.49075 11612 ft 342 kts 203°
2026-05-05 18:26 45.60374 8.48014 12112 ft 353 kts 190°
2026-05-05 18:27 45.57894 8.48085 12774 ft 363 kts 170°
2026-05-05 18:27 45.55557 8.49430 13452 ft 374 kts 150°
2026-05-05 18:27 45.53652 8.52018 14083 ft 386 kts 127°
2026-05-05 18:27 45.52458 8.55509 14693 ft 394 kts 115°
2026-05-05 18:28 45.50432 8.62866 15928 ft 401 kts 115°
2026-05-05 18:28 45.49427 8.66540 16535 ft 405 kts 115°
2026-05-05 18:28 45.48397 8.70288 17133 ft 408 kts 115°
2026-05-05 18:29 45.47351 8.74077 17745 ft 412 kts 115°
2026-05-05 18:29 45.46288 8.77904 18337 ft 416 kts 116°
2026-05-05 18:29 45.45215 8.81754 18856 ft 419 kts 116°
2026-05-05 18:29 45.44144 8.85582 19369 ft 422 kts 116°
2026-05-05 18:30 45.43049 8.89488 19874 ft 425 kts 116°
2026-05-05 18:30 45.41949 8.93411 20370 ft 428 kts 116°
2026-05-05 18:30 45.40835 8.97391 20802 ft 432 kts 116°
2026-05-05 18:30 45.39725 9.01342 21246 ft 436 kts 117°
2026-05-05 18:31 45.38590 9.05361 21708 ft 439 kts 117°
2026-05-05 18:31 45.37443 9.09411 22163 ft 442 kts 117°
2026-05-05 18:31 45.36291 9.13479 22600 ft 445 kts 117°
2026-05-05 18:31 45.35130 9.17576 23018 ft 447 kts 117°
2026-05-05 18:32 45.33975 9.21642 23424 ft 450 kts 117°
2026-05-05 18:32 45.32798 9.25785 23791 ft 452 kts 117°
2026-05-05 18:32 45.31613 9.29949 24128 ft 455 kts 117°
2026-05-05 18:32 45.30418 9.34139 24405 ft 459 kts 117°
2026-05-05 18:33 45.29214 9.38361 24746 ft 462 kts 117°
2026-05-05 18:33 45.28016 9.42551 25043 ft 465 kts 118°
2026-05-05 18:33 45.26793 9.46827 25341 ft 467 kts 118°
2026-05-05 18:33 45.25558 9.51129 25632 ft 470 kts 118°
2026-05-05 18:34 45.24332 9.55394 25910 ft 473 kts 118°
2026-05-05 18:34 45.22935 9.59599 26172 ft 467 kts 128°
2026-05-05 18:34 45.20963 9.63184 26430 ft 457 kts 142°
2026-05-05 18:34 45.18496 9.65941 26664 ft 446 kts 156°
2026-05-05 18:35 45.15701 9.67765 26893 ft 436 kts 169°
2026-05-05 18:35 45.12765 9.68619 27135 ft 428 kts 181°
2026-05-05 18:35 45.09852 9.68552 27385 ft 420 kts 193°
2026-05-05 18:35 45.07012 9.67648 27640 ft 416 kts 200°
2026-05-05 18:36 45.04215 9.66517 27892 ft 418 kts 200°
2026-05-05 18:36 45.01414 9.65385 28139 ft 419 kts 201°
2026-05-05 18:36 44.98608 9.64254 28398 ft 419 kts 201°
2026-05-05 18:36 44.95809 9.63129 28711 ft 418 kts 201°
2026-05-05 18:37 44.93054 9.62029 29044 ft 417 kts 201°
2026-05-05 18:37 44.90257 9.60918 29394 ft 416 kts 201°
2026-05-05 18:37 44.87480 9.59813 29744 ft 414 kts 201°
2026-05-05 18:37 44.84700 9.58705 30072 ft 413 kts 201°
2026-05-05 18:38 44.81935 9.57602 30365 ft 412 kts 201°
2026-05-05 18:38 44.79217 9.56522 30671 ft 410 kts 201°
2026-05-05 18:38 44.76461 9.55427 30975 ft 409 kts 202°
2026-05-05 18:38 44.73724 9.54340 31298 ft 406 kts 202°
2026-05-05 18:39 44.71004 9.53259 31621 ft 404 kts 202°
2026-05-05 18:39 44.68341 9.52202 31935 ft 402 kts 202°
2026-05-05 18:39 44.65649 9.51137 32262 ft 400 kts 202°
2026-05-05 18:39 44.62961 9.50074 32595 ft 398 kts 202°
2026-05-05 18:40 44.60294 9.49015 32936 ft 396 kts 202°
2026-05-05 18:40 44.57664 9.47971 33205 ft 395 kts 202°
2026-05-05 18:40 44.55011 9.46921 33502 ft 394 kts 202°
2026-05-05 18:40 44.52375 9.45883 33875 ft 392 kts 202°
2026-05-05 18:41 44.49757 9.44855 34221 ft 388 kts 202°
2026-05-05 18:41 44.47192 9.43847 34444 ft 388 kts 202°
2026-05-05 18:41 44.44583 9.42821 34680 ft 389 kts 202°
2026-05-05 18:41 44.41966 9.41793 34885 ft 390 kts 202°
2026-05-05 18:42 44.36702 9.39726 34972 ft 394 kts 201°
2026-05-05 18:42 44.31432 9.37662 34964 ft 395 kts 201°
2026-05-05 18:43 44.26129 9.35589 34961 ft 395 kts 201°
2026-05-05 18:43 44.20824 9.33518 34964 ft 395 kts 201°
2026-05-05 18:44 44.15554 9.31467 34966 ft 395 kts 201°
2026-05-05 18:44 44.10297 9.29261 34963 ft 393 kts 204°
2026-05-05 18:45 44.05125 9.26767 34960 ft 392 kts 205°
2026-05-05 18:45 43.99991 9.24267 34948 ft 393 kts 205°
2026-05-05 18:46 43.94812 9.21805 34950 ft 393 kts 205°
2026-05-05 18:46 43.89657 9.19395 34949 ft 393 kts 204°
2026-05-05 18:47 43.84457 9.16978 34928 ft 393 kts 204°
2026-05-05 18:47 43.79262 9.14563 34937 ft 393 kts 204°
2026-05-05 18:48 43.74070 9.12148 34945 ft 393 kts 205°
2026-05-05 18:48 43.68904 9.09744 34950 ft 393 kts 205°
2026-05-05 18:49 43.63707 9.07330 34947 ft 393 kts 204°
2026-05-05 18:49 43.58553 9.04947 34957 ft 392 kts 204°
2026-05-05 18:50 43.53366 9.02547 34958 ft 392 kts 204°
2026-05-05 18:50 43.48219 9.00160 34959 ft 392 kts 204°
2026-05-05 18:51 43.43032 8.97766 34948 ft 392 kts 204°
2026-05-05 18:51 43.37781 8.95724 34949 ft 400 kts 194°
2026-05-05 18:52 43.32173 8.95055 34951 ft 404 kts 192°
2026-05-05 18:52 43.26564 8.94416 34932 ft 404 kts 192°
2026-05-05 18:53 43.20996 8.93776 34941 ft 404 kts 192°
2026-05-05 18:53 43.15389 8.93120 34944 ft 404 kts 192°
2026-05-05 18:54 43.09817 8.92463 34945 ft 404 kts 192°
2026-05-05 18:54 43.04201 8.91813 34937 ft 404 kts 192°
2026-05-05 18:55 42.99544 8.91281 34938 ft 404 kts 192°
2026-05-05 18:55 42.93012 8.90529 34942 ft 404 kts 192°
2026-05-05 18:56 42.87421 8.89892 34912 ft 404 kts 192°
2026-05-05 18:56 42.82749 8.89363 34915 ft 405 kts 192°
2026-05-05 18:57 42.77117 8.88719 34920 ft 406 kts 192°
2026-05-05 18:57 42.71502 8.88078 34924 ft 406 kts 192°
2026-05-05 18:58 42.65843 8.87432 34918 ft 407 kts 192°
2026-05-05 18:58 42.60212 8.86792 34927 ft 408 kts 192°
2026-05-05 18:59 42.54552 8.86150 34935 ft 408 kts 192°
2026-05-05 18:59 42.48916 8.85512 34936 ft 408 kts 192°
2026-05-05 19:00 42.43255 8.84874 34940 ft 408 kts 191°
2026-05-05 19:00 42.37584 8.84235 34944 ft 407 kts 192°
2026-05-05 19:01 42.31943 8.83599 34947 ft 407 kts 192°
2026-05-05 19:01 42.26309 8.82971 34925 ft 407 kts 192°
2026-05-05 19:02 42.20649 8.82340 34885 ft 408 kts 192°
2026-05-05 19:02 42.17848 8.82027 33970 ft 408 kts 192°
2026-05-05 19:02 42.14998 8.81703 32179 ft 414 kts 191°
2026-05-05 19:03 42.12102 8.81370 30333 ft 421 kts 191°
2026-05-05 19:03 42.09129 8.81029 28270 ft 427 kts 191°
2026-05-05 19:03 42.06185 8.80693 26308 ft 432 kts 189°
2026-05-05 19:03 42.03175 8.80351 24459 ft 435 kts 190°
2026-05-05 19:04 42.00261 8.79486 22982 ft 422 kts 204°
2026-05-05 19:04 41.97526 8.78106 21447 ft 417 kts 200°
2026-05-05 19:04 41.94753 8.77024 20361 ft 414 kts 198°
2026-05-05 19:04 41.91971 8.75962 19719 ft 414 kts 198°
2026-05-05 19:05 41.89249 8.74917 19105 ft 409 kts 198°
2026-05-05 19:05 41.86525 8.73865 18502 ft 405 kts 198°
2026-05-05 19:05 41.83824 8.72810 17816 ft 402 kts 198°
2026-05-05 19:05 41.81144 8.71755 17134 ft 399 kts 198°
2026-05-05 19:06 41.78491 8.70707 16470 ft 395 kts 198°
2026-05-05 19:06 41.75855 8.69663 15880 ft 392 kts 198°
2026-05-05 19:06 41.73274 8.68643 15323 ft 389 kts 198°
2026-05-05 19:06 41.70686 8.67622 14751 ft 386 kts 198°
2026-05-05 19:07 41.68108 8.66607 14203 ft 383 kts 198°
2026-05-05 19:07 41.65552 8.65601 13640 ft 381 kts 198°
2026-05-05 19:07 41.63042 8.64619 13037 ft 378 kts 198°
2026-05-05 19:07 41.60529 8.63635 12444 ft 375 kts 198°
2026-05-05 19:08 41.58023 8.62648 11854 ft 372 kts 198°
2026-05-05 19:08 41.55550 8.61668 11278 ft 369 kts 198°
2026-05-05 19:08 41.53092 8.60688 10717 ft 366 kts 198°
2026-05-05 19:08 41.50686 8.59753 10170 ft 362 kts 195°
2026-05-05 19:09 41.48194 8.59572 9598 ft 360 kts 175°
2026-05-05 19:09 41.45817 8.60606 8996 ft 360 kts 154°
2026-05-05 19:09 41.43723 8.62426 8400 ft 356 kts 149°
2026-05-05 19:09 41.41711 8.64292 8005 ft 345 kts 148°
2026-05-05 19:10 41.39771 8.66099 7538 ft 337 kts 148°
2026-05-05 19:10 41.37900 8.67842 7049 ft 324 kts 148°
2026-05-05 19:10 41.36218 8.69715 6577 ft 310 kts 132°
2026-05-05 19:10 41.35240 8.72210 6059 ft 303 kts 107°
2026-05-05 19:11 41.35158 8.74956 5555 ft 296 kts 80°
2026-05-05 19:11 41.35799 8.77522 5058 ft 288 kts 70°
2026-05-05 19:11 41.36560 8.79945 4559 ft 279 kts 69°
2026-05-05 19:11 41.37317 8.82294 4058 ft 272 kts 69°
2026-05-05 19:12 41.37801 8.84662 3553 ft 260 kts 88°
2026-05-05 19:12 41.37949 8.87000 3070 ft 254 kts 88°
2026-05-05 19:12 41.38092 8.89304 2784 ft 243 kts 88°
2026-05-05 19:12 41.38282 8.91498 2656 ft 233 kts 77°
2026-05-05 19:13 41.38910 8.93438 2522 ft 224 kts 64°
2026-05-05 19:13 41.39620 8.95229 2428 ft 211 kts 64°
2026-05-05 19:13 41.40284 8.96919 2306 ft 203 kts 64°
2026-05-05 19:13 41.40934 8.98575 2163 ft 198 kts 64°
2026-05-05 19:14 41.41537 9.00106 2063 ft 181 kts 64°
2026-05-05 19:14 41.42127 9.01553 1990 ft 175 kts 57°
2026-05-05 19:14 41.42999 9.02637 1898 ft 167 kts 33°
2026-05-05 19:14 41.43941 9.03438 1600 ft 158 kts 33°
2026-05-05 19:15 41.44850 9.04179 1404 ft 151 kts 31°
2026-05-05 19:15 41.45760 9.04853 1195 ft 147 kts 30°
2026-05-05 19:15 41.46657 9.05494 990 ft 145 kts 28°
2026-05-05 19:15 41.47522 9.06148 777 ft 144 kts 34°
2026-05-05 19:16 41.48316 9.06945 528 ft 142 kts 41°
2026-05-05 19:16 41.49002 9.07876 273 ft 139 kts 49°
2026-05-05 19:16 41.49643 9.08843 70 ft 138 kts 48°
2026-05-05 19:16 41.50164 9.09606 68 ft 72 kts 47°
2026-05-05 19:17 41.50425 9.09982 68 ft 32 kts 47°
2026-05-05 19:17 41.50486 9.10142 84 ft 12 kts 71°
2026-05-05 19:17 41.50523 9.10123 82 ft 8 kts 256°
2026-05-05 19:17 41.50460 9.10034 81 ft 19 kts 226°
2026-05-05 19:18 41.50364 9.09914 73 ft 17 kts 223°
2026-05-05 19:18 41.50285 9.09784 70 ft 20 kts 227°
2026-05-05 19:18 41.50197 9.09701 71 ft 14 kts 169°
2026-05-05 19:18 41.50146 9.09750 68 ft 8 kts 136°
2026-05-05 19:19 41.50109 9.09798 64 ft 7 kts 137°
2026-05-05 19:19 41.50070 9.09813 70 ft 6 kts 189°
2026-05-05 19:19 41.50043 9.09786 67 ft 4 kts 227°
2026-05-05 19:19 41.50019 9.09756 68 ft 7 kts 208°
2026-05-05 19:20 41.49982 9.09774 66 ft 5 kts 133°
2026-05-05 19:20 41.49965 9.09795 67 ft 0 kts 137°